Temp
0 1 2 3 4 4 3 3 3 4 4 4 3 3 3 4 4 4 4 3 3 2 1 3 4 4 4 5 5 5 6 6 6 6 6 5 5 6 6 6 6 7 7 6
1 1 2 2 3 2 2 2 3 3 3 3 2 2 3 3 4 4 3 3 1 -0 1 3 3 3 4 4 5 5 5 5 6 6 6 6 5 5 6 6 6 6 6 6
2 3 2 1 1 1 1 2 2 2 2 2 2 3 4 5 3 2 0 -0 -1 -1 0 1 2 2 3 3 4 4 4 5 5 5 6 6 6 6 6 6 6 6 6 6
1 1 1 1 0 0 1 2 1 1 1 2 2 4 3 4 4 2 -1 -3 -0 -0 -1 -1 -1 -1 -0 0 1 2 2 2 3 4 4 5 5 5 5 5 6 6 6 6
0 1 -1 -0 0 0 0 0 -1 -0 -0 -0 1 2 3 4 4 1 -3 -1 -1 -1 -2 -1 -1 -0 -0 0 1 1 1 1 2 2 3 3 4 4 4 5 4 6 6 5
-1 -1 -1 -1 -0 -1 -1 -1 -2 -1 -1 0 1 2 3 3 -1 -3 -2 -2 -2 -2 -2 -2 -2 -1 -1 -0 0 1 2 2 1 1 1 1 2 2 3 3 3 3 5 5
-0 -0 -1 -2 -2 -1 -2 -2 0 1 2 2 3 3 3 -2 -4 -1 -1 -1 -2 -3 -3 -3 -2 -2 -2 -1 -1 -0 1 1 1 1 1 0 1 1 2 2 2 2 3 5
-1 -1 -0 -1 -2 -1 -1 -1 -0 -0 1 3 3 2 1 -4 -5 -6 -3 -4 -4 -4 -4 -4 -3 -3 -3 -2 -1 -1 0 1 1 0 1 1 1 1 1 2 2 2 4 4
-1 -0 -2 -3 -3 -3 -2 -2 -2 -2 -2 -1 -0 1 -2 -5 -6 -4 -4 -4 -4 -5 -4 -4 -4 -4 -3 -2 -1 -1 0 1 1 0 -1 -0 1 1 1 1 2 2 2 3
-3 -3 -2 -3 -5 -5 -4 -3 -3 -3 -3 -1 2 2 -3 -4 -4 -4 -4 -4 -5 -5 -5 -4 -4 -3 -2 -1 -2 -2 -1 0 1 -0 -1 0 1 1 1 1 2 2 3 3
-4 -5 -3 -5 -4 -4 -3 -4 -5 -3 -3 -1 -1 -3 -5 -4 -4 -4 -5 -6 -6 -6 -5 -4 -4 -4 -4 -4 -3 -2 -1 -1 -1 -0 -0 1 1 1 1 1 2 2 3 3
-5 -6 -5 -4 -3 -4 -4 -3 -4 -4 -3 -3 -2 -2 -5 -5 -5 -5 -6 -7 -7 -7 -6 -5 -5 -5 -4 -4 -3 -4 -3 -1 -0 0 0 1 1 2 2 2 2 2 3 3
-6 -6 -5 -4 -4 -5 -5 -5 -4 -4 -5 -4 -4 -4 -5 -6 -6 -6 -7 -8 -7 -7 -7 -6 -6 -5 -4 -4 -4 -4 -3 -2 -0 -0 1 1 1 2 2 2 2 2 3 2
-8 -7 -6 -3 -6 -5 -5 -5 -5 -5 -5 -3 -3 -6 -7 -7 -7 -7 -8 -8 -8 -8 -7 -7 -6 -5 -4 -4 -4 -4 -4 -2 -1 -1 -0 0 1 1 2 2 1 2 3 3
-8 -8 -7 -7 -7 -6 -5 -5 -6 -6 -6 -6 -5 -7 -7 -7 -8 -8 -8 -8 -8 -8 -8 -7 -7 -6 -5 -4 -4 -4 -4 -4 -3 -2 -1 -0 -0 0 1 1 2 2 3 3
-8 -8 -8 -8 -6 -6 -6 -6 -7 -7 -7 -7 -8 -8 -8 -8 -8 -8 -8 -8 -8 -8 -8 -7 -7 -7 -6 -5 -5 -5 -4 -4 -4 -3 -3 -1 -1 -1 0 1 1 1 2 2
-8 -8 -8 -6 -5 -7 -6 -7 -7 -8 -7 -8 -8 -8 -8 -8 -9 -8 -8 -8 -8 -8 -8 -8 -7 -7 -7 -7 -6 -5 -5 -4 -4 -3 -3 -3 -2 -2 -1 -0 0 0 0 1
-8 -8 -7 -6 -6 -5 -7 -7 -8 -8 -9 -9 -8 -8 -8 -9 -9 -9 -8 -8 -8 -8 -8 -8 -8 -8 -7 -7 -7 -6 -6 -5 -4 -4 -4 -3 -2 -3 -2 -3 -2 0 1 0
-8 -8 -7 -6 -4 -7 -8 -7 -8 -8 -9 -9 -9 -8 -9 -9 -8 -9 -8 -8 -8 -8 -8 -8 -8 -8 -7 -7 -7 -6 -6 -6 -5 -5 -5 -5 -5 -4 -4 -3 -3 -2 -3 -2
-8 -8 -8 -6 -4 -3 -7 -7 -7 -8 -8 -8 -9 -8 -9 -9 -9 -9 -8 -9 -8 -8 -8 -8 -8 -8 -7 -7 -7 -6 -6 -5 -5 -5 -5 -5 -5 -5 -5 -4 -4 -4 -4 -3
-7 -7 -7 -6 -5 -7 -8 -6 -7 -8 -7 -7 -8 -8 -8 -8 -8 -9 -8 -8 -8 -8 -8 -8 -8 -7 -7 -7 -7 -6 -6 -5 -5 -6 -6 -5 -5 -4 -5 -5 -4 -4 -4 -3
-6 -6 -6 -6 -5 -5 -6 -7 -7 -7 -7 -7 -7 -8 -8 -8 -8 -8 -8 -8 -8 -8 -8 -8 -8 -7 -7 -7 -7 -6 -6 -5 -6 -6 -6 -5 -5 -5 -5 -5 -5 -5 -5 -5
-7 -7 -7 -6 -7 -6 -6 -6 -7 -6 -7 -7 -7 -7 -8 -8 -8 -8 -8 -8 -8 -8 -8 -8 -7 -7 -7 -7 -7 -6 -6 -6 -6 -6 -6 -6 -6 -6 -5 -5 -5 -5 -5 -5
-7 -7 -8 -7 -6 -6 -6 -7 -7 -7 -7 -7 -7 -8 -8 -8 -8 -8 -8 -8 -8 -8 -8 -8 -8 -8 -7 -7 -6 -6 -6 -6 -6 -6 -6 -6 -6 -6 -5 -6 -5 -5 -5 -5
-8 -7 -8 -8 -7 -7 -7 -7 -7 -7 -7 -7 -8 -8 -8 -8 -8 -8 -8 -8 -8 -8 -8 -8 -8 -8 -7 -7 -7 -7 -7 -7 -6 -6 -6 -6 -6 -5 -5 -5 -5 -5 -5 -5
-7 -7 -8 -8 -7 -8 -8 -7 -7 -7 -8 -8 -8 -8 -8 -8 -8 -8 -8 -9 -8 -8 -8 -8 -8 -8 -8 -8 -7 -7 -7 -7 -7 -7 -7 -7 -7 -7 -7 -6 -6 -6 -6 -6
Height
3086 3087 3084 3084 3084 3083 3082 3081 3079 3078 3078 3076 3074 3071 3071 3071 3069 3067 3067 3068 3068 3064 3056 3052 3052 3051 3052 3052 3053 3055 3054 3056 3058 3061 3064 3066 3068 3073 3075 3080 3083 3086 3090 3093
3084 3078 3082 3080 3079 3079 3079 3077 3074 3072 3072 3070 3068 3063 3063 3062 3059 3059 3057 3059 3055 3049 3047 3043 3041 3040 3039 3039 3039 3041 3043 3044 3045 3048 3051 3054 3058 3061 3063 3069 3073 3078 3081 3083
3078 3078 3076 3075 3075 3075 3073 3073 3071 3069 3067 3064 3062 3051 3054 3052 3050 3050 3047 3046 3044 3041 3037 3034 3032 3030 3027 3026 3026 3027 3028 3030 3032 3034 3037 3041 3045 3049 3050 3054 3061 3065 3070 3072
3069 3072 3072 3072 3069 3072 3067 3069 3066 3065 3065 3059 3059 3041 3043 3048 3044 3041 3042 3039 3036 3033 3030 3026 3023 3021 3019 3017 3014 3013 3014 3015 3017 3019 3022 3026 3029 3033 3040 3042 3048 3053 3058 3061
3063 3065 3064 3064 3065 3067 3065 3065 3063 3062 3060 3058 3042 3048 3029 3039 3035 3033 3032 3030 3030 3027 3022 3019 3016 3012 3010 3007 3004 3003 3001 3002 3002 3004 3008 3011 3014 3018 3023 3027 3030 3038 3043 3049
3060 3060 3059 3060 3061 3062 3062 3061 3058 3057 3055 3049 3037 3038 3025 3028 3026 3027 3026 3025 3021 3020 3017 3012 3008 3003 3000 2997 2993 2991 2989 2989 2990 2991 2994 2996 2998 3003 3008 3013 3017 3019 3030 3036
3056 3056 3056 3053 3056 3058 3057 3058 3050 3045 3040 3032 3030 3026 3030 3025 3022 3021 3021 3021 3017 3013 3009 3005 2999 2994 2990 2987 2983 2979 2976 2977 2978 2980 2982 2984 2986 2989 2993 3000 3006 3011 3013 3023
3052 3050 3052 3050 3050 3053 3052 3052 3048 3037 3033 3027 3025 3023 3021 3022 3021 3018 3017 3015 3012 3007 3002 2997 2990 2985 2980 2974 2972 2968 2965 2965 2967 2969 2969 2970 2973 2976 2981 2988 2996 2999 3004 3011
3048 3046 3045 3045 3047 3048 3047 3046 3047 3043 3040 3034 3027 3022 3022 3019 3017 3014 3013 3010 3006 3001 2996 2990 2984 2978 2972 2967 2960 2954 2952 2954 2956 2957 2958 2957 2958 2961 2965 2974 2984 2990 2997 3001
3048 3045 3044 3043 3041 3042 3042 3045 3043 3043 3036 3023 3012 3009 3012 3014 3014 3013 3011 3006 3002 2998 2991 2985 2979 2972 2966 2959 2949 2944 2941 2941 2945 2947 2946 2945 2944 2945 2952 2961 2972 2980 2987 2992
3044 3043 3041 3038 3037 3037 3037 3038 3039 3037 3032 3022 3013 3012 3013 3012 3012 3011 3008 3004 2999 2992 2986 2980 2975 2967 2959 2950 2945 2938 2935 2935 2936 2938 2938 2937 2937 2939 2945 2953 2964 2972 2978 2983
3039 3037 3034 3032 3032 3031 3031 3030 3030 3031 3027 3022 3017 3013 3011 3012 3011 3010 3007 3001 2995 2989 2983 2977 2972 2966 2959 2953 2944 2935 2931 2931 2932 2933 2934 2933 2933 2935 2941 2948 2956 2964 2969 2976
3035 3033 3031 3025 3028 3026 3024 3025 3026 3026 3026 3022 3020 3014 3011 3011 3009 3007 3004 2999 2995 2989 2983 2977 2971 2965 2960 2952 2946 2938 2934 2929 2930 2929 2929 2930 2932 2936 2940 2945 2950 2954 2961 2967
3030 3029 3027 3020 3025 3024 3023 3022 3023 3023 3023 3018 3015 3012 3009 3009 3007 3005 3002 2999 2995 2990 2983 2977 2971 2965 2960 2953 2948 2943 2937 2932 2929 2924 2926 2927 2931 2934 2938 2941 2944 2949 2955 2959
3027 3025 3024 3020 3021 3021 3021 3020 3019 3018 3018 3017 3013 3012 3009 3008 3006 3004 3002 2999 2996 2991 2984 2978 2972 2968 2962 2958 2951 2946 2941 2937 2931 2927 2923 2927 2929 2933 2936 2940 2943 2946 2949 2954
3025 3023 3021 3016 3015 3015 3014 3013 3013 3012 3012 3011 3010 3008 3007 3006 3005 3003 3002 2999 2996 2991 2986 2981 2977 2973 2967 2961 2954 2950 2946 2941 2935 2930 2925 2924 2925 2929 2934 2937 2940 2943 2947 2951
3022 3020 3019 3013 3012 3010 3008 3004 3006 3007 3005 3008 3007 3005 3004 3004 3004 3003 3002 3000 2997 2993 2989 2985 2980 2976 2971 2965 2961 2956 2951 2948 2942 2937 2931 2927 2925 2926 2930 2936 2938 2941 2945 2949
3015 3016 3017 3011 3010 3004 3001 3001 3002 3003 3003 3003 3004 3004 3004 3004 3004 3004 3003 3001 2998 2994 2991 2988 2984 2980 2976 2971 2968 2963 2960 2955 2950 2945 2940 2938 2937 2934 2932 2931 2934 2936 2941 2940
3011 3013 3012 3009 3003 3002 2998 2998 3000 3000 3002 3002 3002 3003 3004 3005 3005 3005 3004 3003 3000 2998 2995 2992 2988 2984 2982 2979 2974 2971 2968 2963 2959 2953 2949 2947 2946 2944 2941 2938 2934 2938 2938 2936
3007 3008 3011 3005 3001 2994 2996 2996 2998 3000 3001 3000 3001 3002 3004 3005 3006 3006 3005 3004 3002 3000 2997 2995 2993 2990 2987 2984 2980 2978 2974 2971 2964 2961 2958 2957 2955 2954 2950 2948 2946 2944 2943 2937
3002 3003 3003 3003 2999 2995 2994 2995 2998 3001 3002 2997 2999 3001 3003 3005 3006 3006 3006 3005 3003 3002 3000 2998 2996 2994 2991 2988 2985 2982 2979 2974 2970 2968 2967 2965 2962 2960 2957 2955 2954 2951 2949 2951
2997 2997 2995 2997 2994 2993 2992 2994 2997 2997 2996 2997 2998 3001 3003 3004 3006 3006 3006 3006 3004 3004 3003 3001 2999 2996 2994 2992 2990 2986 2983 2978 2976 2974 2973 2970 2967 2965 2963 2960 2959 2957 2957 2956
2994 2992 2989 2990 2989 2988 2989 2990 2993 2994 2996 2997 2999 3001 3003 3005 3006 3007 3007 3006 3006 3006 3005 3003 3002 2999 2997 2995 2993 2990 2987 2984 2982 2980 2978 2975 2973 2970 2968 2966 2964 2963 2961 2960
2985 2986 2987 2988 2986 2986 2987 2989 2992 2994 2996 2998 3000 3002 3004 3006 3006 3008 3008 3008 3008 3008 3007 3005 3004 3002 3001 2998 2995 2993 2990 2988 2986 2984 2981 2979 2977 2974 2971 2969 2967 2966 2964 2962
2983 2983 2982 2981 2982 2984 2985 2988 2991 2994 2996 2999 3000 3002 3004 3005 3007 3008 3009 3009 3009 3008 3007 3006 3005 3004 3002 3000 2998 2995 2993 2990 2988 2985 2982 2980 2978 2975 2973 2971 2968 2965 2963 2961
2979 2979 2980 2980 2980 2980 2984 2987 2990 2994 2996 2998 3001 3002 3004 3006 3007 3009 3010 3009 3009 3009 3008 3008 3007 3005 3004 3002 3000 2997 2995 2992 2990 2988 2985 2982 2979 2977 2974 2971 2969 2967 2964 2961
Wind_Speed
17 18 22 19 20 24 25 25 28 28 26 28 31 33 28 26 30 30 29 26 22 21 32 37 35 36 35 36 35 35 40 43 48 52 50 49 51 49 49 48 48 47 47 46
18 26 20 21 21 21 22 26 30 30 26 26 27 34 33 33 35 31 24 19 22 29 32 36 36 36 40 41 39 40 41 44 47 51 55 57 55 54 55 51 48 47 49 50
27 21 14 16 20 21 24 25 27 28 25 28 32 41 29 20 16 16 15 21 20 24 27 36 39 38 39 41 43 42 42 45 48 52 55 58 61 62 60 63 55 53 52 55
28 24 26 26 23 20 28 22 24 22 22 29 27 31 39 31 31 20 14 9 21 29 29 32 35 34 35 38 43 45 46 43 45 50 55 59 61 63 59 62 65 59 59 59
22 17 16 18 23 20 24 18 16 19 25 29 43 27 44 26 21 17 11 21 24 26 29 32 33 35 34 36 42 44 43 44 44 45 50 57 63 63 63 63 64 70 64 62
22 15 15 16 16 17 15 17 21 24 28 24 36 31 38 13 7 9 17 22 29 28 28 30 31 31 31 34 37 43 44 46 46 46 45 51 61 64 63 61 57 60 66 64
19 20 18 17 16 17 16 16 16 18 16 17 28 20 16 5 7 19 25 31 30 28 33 33 34 34 34 32 30 38 41 43 43 45 48 50 55 62 65 61 58 45 54 57
16 17 19 19 15 17 18 21 19 19 15 19 27 11 3 3 3 12 22 23 27 33 34 31 31 33 36 34 33 35 37 41 39 42 49 54 53 55 61 65 53 62 42 50
11 16 11 17 14 12 12 22 19 25 27 23 29 28 3 4 6 15 20 27 28 28 27 28 28 31 31 31 37 32 30 38 37 36 38 43 54 58 57 61 56 49 47 46
11 15 18 16 14 18 20 13 10 13 6 12 13 18 3 9 12 18 25 29 28 26 27 27 26 25 27 32 28 25 24 29 34 32 33 32 36 47 48 54 53 48 48 46
12 14 14 10 18 17 17 19 20 19 20 9 10 2 6 13 20 24 23 26 25 26 25 24 22 23 25 28 30 26 19 17 18 25 26 25 25 30 37 46 46 45 46 44
12 10 18 21 17 16 19 21 17 22 17 14 22 15 17 15 18 23 24 20 22 23 22 20 17 19 21 16 24 23 19 16 18 21 20 15 15 21 31 39 39 41 43 42
11 10 11 8 12 15 12 18 19 17 17 21 12 6 15 15 18 25 17 14 16 16 14 12 13 14 14 13 18 15 6 7 13 12 13 11 13 23 31 36 35 36 36 37
13 15 15 17 11 5 5 7 12 18 21 21 22 11 13 16 16 13 8 8 11 14 17 20 20 20 18 20 19 18 15 7 6 7 11 15 18 24 26 31 34 29 33 36
15 14 15 24 20 17 17 16 16 19 21 20 19 13 17 15 9 3 4 7 9 15 22 26 28 28 26 20 21 22 20 18 11 9 2 20 23 22 24 22 26 30 30 30
15 11 11 20 16 16 21 23 21 22 23 28 22 19 18 10 3 3 4 7 9 15 20 23 27 28 27 27 28 27 28 24 17 15 11 9 21 30 25 23 22 23 28 31
18 12 10 10 5 8 11 20 19 19 23 14 12 12 10 7 5 3 5 7 11 15 18 21 24 26 29 30 29 30 30 27 28 29 26 19 12 7 18 23 24 26 27 30
16 17 11 9 5 8 4 6 9 12 13 16 15 10 9 7 6 5 6 8 11 15 19 21 23 26 26 28 28 30 30 30 29 28 29 26 22 17 13 9 15 29 30 33
22 16 8 7 13 3 8 10 8 7 9 11 11 9 9 9 8 6 5 7 11 14 16 19 22 25 24 25 28 27 27 29 30 35 36 35 31 28 26 21 14 5 9 6
19 20 20 10 10 3 6 7 8 6 6 12 13 11 11 10 6 3 5 9 11 14 17 20 21 22 23 24 26 25 26 28 32 34 35 33 32 32 35 33 26 22 20 19
16 17 23 21 12 3 8 10 10 4 5 9 14 14 12 9 8 6 6 9 12 14 17 18 18 19 21 23 23 23 24 28 32 31 30 29 29 30 31 30 29 29 28 26
13 9 14 18 11 7 9 14 12 6 5 10 13 13 12 11 9 7 8 9 12 14 14 16 17 18 20 21 22 23 24 28 28 28 27 27 28 28 27 28 27 26 25 23
8 14 2 9 8 7 7 16 14 6 11 13 15 16 14 11 9 8 9 11 12 11 12 14 15 17 18 19 21 22 24 25 25 25 24 25 25 24 24 24 24 23 23 22
13 13 13 13 16 12 9 15 16 11 14 15 16 14 13 11 10 10 11 11 10 10 11 13 14 15 16 17 19 21 22 22 22 22 22 22 22 24 24 23 22 22 21 21
14 7 11 18 15 13 15 17 15 16 17 16 15 13 11 11 10 10 11 10 8 9 10 11 12 13 15 16 17 19 20 21 21 22 23 23 24 24 23 23 25 25 26 26
9 12 10 9 10 15 18 18 20 18 18 16 13 11 9 9 10 11 10 8 7 7 8 9 10 12 13 14 16 18 19 21 21 22 22 23 24 25 25 26 26 25 26 28
Wind_Direction
254 242 244 257 258 265 268 269 271 274 275 274 273 276 278 275 275 273 271 271 271 256 250 262 269 271 268 267 262 254 251 246 246 246 245 245 243 242 240 238 241 240 239 236
239 247 260 262 261 259 266 270 273 278 279 272 278 277 280 278 275 273 263 247 237 247 262 270 272 273 274 270 262 257 250 248 246 244 244 244 243 244 244 242 240 242 241 238
249 252 272 266 256 263 267 268 276 278 280 274 283 282 282 291 259 241 231 224 253 267 276 281 281 279 276 271 267 262 254 248 245 244 242 244 245 247 245 244 241 242 241 242
254 259 263 260 264 261 268 273 274 277 280 282 286 290 284 280 271 224 226 249 265 285 283 285 284 280 274 277 270 267 263 258 251 244 242 240 240 239 242 251 246 241 244 243
253 257 261 256 260 261 266 268 269 274 280 290 279 277 282 281 254 206 222 264 282 284 287 289 290 285 279 277 271 268 268 260 257 251 244 241 240 238 238 237 245 242 241 242
251 255 245 258 255 253 260 269 274 275 271 264 276 273 272 284 235 211 250 286 294 290 292 293 298 298 289 284 271 265 262 255 253 252 247 243 239 237 237 233 232 248 239 241
253 252 259 252 255 259 262 270 275 270 245 255 278 260 284 293 294 274 283 287 289 298 305 301 302 301 297 290 280 272 261 252 251 252 252 247 243 240 237 234 236 234 245 236
267 268 257 237 247 258 265 256 255 283 291 296 297 271 225 181 352 315 299 306 308 308 306 305 306 306 304 298 291 288 261 248 252 254 251 249 248 245 241 237 233 236 248 232
284 258 245 240 255 236 276 244 258 278 276 271 266 262 260 204 288 297 313 312 314 311 310 313 312 311 305 301 300 289 262 252 254 250 256 254 249 249 244 237 232 232 227 231
253 264 269 258 251 248 243 243 268 232 262 252 253 255 162 240 288 312 309 312 315 315 317 316 318 315 315 318 322 305 275 258 246 257 261 262 255 244 239 232 228 227 227 229
251 255 267 233 244 260 239 246 243 254 263 279 294 48 312 323 315 318 316 311 317 327 326 326 325 327 329 332 330 322 298 268 245 254 271 262 254 241 233 224 226 227 221 229
242 256 255 257 269 256 246 252 231 231 252 278 273 280 286 313 322 321 311 324 332 331 334 333 336 339 345 329 333 329 312 269 250 260 255 248 243 224 216 217 224 224 223 227
224 243 264 252 237 241 243 232 237 245 258 273 288 293 286 305 312 315 313 339 341 352 354 357 4 8 10 4 12 4 354 196 248 221 220 213 221 219 224 222 221 218 222 222
209 242 243 263 319 315 249 226 226 241 253 269 270 277 286 300 305 305 335 8 23 32 40 41 42 42 37 26 25 22 23 21 338 158 199 197 213 219 222 228 224 220 220 220
225 254 257 268 268 267 260 253 248 247 250 262 275 290 287 291 288 319 39 54 47 47 49 49 47 46 45 38 39 42 34 22 357 334 183 209 205 214 220 226 218 223 217 218
222 245 266 272 270 261 262 256 249 255 250 253 267 253 263 249 213 104 84 60 45 49 51 50 52 50 50 45 46 44 41 33 29 37 32 190 199 205 211 218 229 226 221 220
218 238 246 262 284 267 256 239 242 231 237 243 240 238 215 180 153 119 79 60 53 54 56 54 54 53 53 54 50 50 48 47 49 49 45 38 62 146 191 219 230 228 232 229
216 230 249 278 224 236 235 227 235 212 231 226 226 225 182 158 139 104 69 59 61 62 60 58 58 58 56 59 58 57 54 53 51 50 53 53 49 45 43 70 157 185 203 197
218 221 255 248 234 205 282 231 197 166 220 192 199 180 160 148 129 94 74 69 66 64 64 61 59 61 60 61 62 61 61 59 60 60 60 59 55 59 64 63 66 44 49 127
224 237 236 275 253 257 153 184 200 186 234 205 201 182 163 144 83 115 88 74 70 67 68 66 63 60 59 58 59 58 60 62 62 59 58 57 58 58 62 60 57 56 53 52
198 222 225 237 257 196 201 185 181 211 189 192 190 185 174 166 150 132 100 89 85 78 72 65 58 55 53 54 51 52 54 57 55 53 51 52 52 51 52 52 54 51 51 49
207 216 209 227 245 218 217 193 189 225 194 176 175 166 164 154 147 135 117 104 93 83 70 62 56 51 48 49 50 50 49 51 48 46 43 42 42 42 41 40 39 38 37 36
213 218 222 208 214 232 227 215 192 187 167 163 161 159 153 151 151 144 131 116 101 86 73 65 59 54 49 46 45 43 44 42 40 36 33 32 33 32 30 29 28 27 26 23
243 231 234 241 239 243 231 200 195 180 170 165 157 157 154 152 149 145 135 125 112 93 75 65 57 52 47 44 40 36 34 32 30 29 27 24 20 17 14 14 13 12 10 9
253 240 241 229 236 226 206 189 187 180 169 166 163 160 157 151 153 152 143 129 108 89 75 64 54 47 42 39 36 33 29 28 22 19 16 14 11 8 6 3 358 355 353 352
254 240 213 238 265 214 190 187 177 177 174 169 168 160 161 163 156 156 149 128 108 92 80 66 53 45 40 37 38 36 31 28 26 23 19 16 12 8 3 359 356 353 349 345